Volver al catálogo

STARLINK-34023

ActivoComunicacionesVLEO
NORAD 63875·PAYLOAD·🇺🇸 United States

Lanzado May 10, 2025 desde Vandenberg Space Force Base

Loading…

Próximos Pases (próximas 24 horas)

TLE

ActualizadoSource: CelesTrak SupGP

Época: Sep 14, 2026, 20:34 UTC

1 63875C 25094M   26257.85743056 -.00029819  00000+0 -10373-2 0  2572
2 63875  69.9992 115.7145 0003427 270.0181  83.9209 15.29592556    15

Sigue STARLINK-34023 en tiempo real con AllMySat

Download on the App Store